UAE822 OEDF-OMDB

Flight info

Callsign UAE822
Flight time N/A
Altitude 31000
Route ROTEL N572 DAVRI P559 VUTEB
Aircraft B77W/H-SDE1E2E3FGHIJ2J3J4J5M1RWXY/LB1D1

Departure

Time N/A
Airport King Fahd International Airport (OEDF)

Arrival

Time 2026-05-04 19:49
Airport Dubai International Airport (OMDB)
Time Latitude Longitude Altitude Speed Heading
2026-05-04 19:37 25.35566 55.32777 5694 ft 277 kts 127°
2026-05-04 19:37 25.34479 55.34511 5195 ft 272 kts 119°
2026-05-04 19:37 25.33519 55.36299 4698 ft 269 kts 118°
2026-05-04 19:37 25.32576 55.38076 4237 ft 266 kts 119°
2026-05-04 19:38 25.31634 55.39826 4138 ft 266 kts 120°
2026-05-04 19:38 25.30675 55.41583 4097 ft 266 kts 120°
2026-05-04 19:38 25.29727 55.43297 4022 ft 257 kts 120°
2026-05-04 19:38 25.28817 55.44934 4017 ft 241 kts 120°
2026-05-04 19:39 25.27950 55.46491 3997 ft 235 kts 120°
2026-05-04 19:39 25.27109 55.47999 3979 ft 229 kts 120°
2026-05-04 19:39 25.26278 55.49494 3989 ft 227 kts 120°
2026-05-04 19:39 25.25468 55.50951 3954 ft 218 kts 120°
2026-05-04 19:40 25.24678 55.52371 3913 ft 216 kts 120°
2026-05-04 19:40 25.23896 55.53777 3885 ft 214 kts 120°
2026-05-04 19:40 25.23121 55.55172 3807 ft 213 kts 120°
2026-05-04 19:40 25.22346 55.56565 3725 ft 213 kts 120°
2026-05-04 19:41 25.21570 55.57958 3649 ft 213 kts 120°
2026-05-04 19:41 25.20793 55.59353 3567 ft 213 kts 120°
2026-05-04 19:41 25.20017 55.60746 3469 ft 213 kts 120°
2026-05-04 19:41 25.19242 55.62138 3403 ft 212 kts 121°
2026-05-04 19:42 25.18468 55.63528 3343 ft 212 kts 121°
2026-05-04 19:42 25.17697 55.64913 3251 ft 212 kts 121°
2026-05-04 19:42 25.16789 55.66181 3107 ft 211 kts 146°
2026-05-04 19:42 25.15414 55.66645 3053 ft 210 kts 185°
2026-05-04 19:43 25.14042 55.66165 3016 ft 208 kts 210°
2026-05-04 19:43 25.12788 55.65361 3001 ft 209 kts 213°
2026-05-04 19:43 25.11654 55.64392 2909 ft 205 kts 237°
2026-05-04 19:43 25.11245 55.62945 2912 ft 201 kts 275°
2026-05-04 19:44 25.11463 55.61962 2900 ft 197 kts 294°
2026-05-04 19:44 25.12225 55.60174 2884 ft 191 kts 298°
2026-05-04 19:44 25.12867 55.58904 2895 ft 189 kts 301°
2026-05-04 19:44 25.13536 55.57663 2885 ft 188 kts 302°
2026-05-04 19:45 25.14215 55.56427 2894 ft 188 kts 302°
2026-05-04 19:45 25.14896 55.55197 2936 ft 188 kts 302°
2026-05-04 19:45 25.15556 55.54005 2875 ft 172 kts 302°
2026-05-04 19:45 25.15969 55.53258 2805 ft 174 kts 302°
2026-05-04 19:46 25.16590 55.52138 2590 ft 170 kts 302°
2026-05-04 19:46 25.17186 55.51062 2367 ft 159 kts 302°
2026-05-04 19:46 25.17947 55.49686 2086 ft 155 kts 302°
2026-05-04 19:46 25.18319 55.49014 1967 ft 154 kts 302°
2026-05-04 19:47 25.19060 55.47675 1716 ft 155 kts 302°
2026-05-04 19:47 25.19618 55.46667 1523 ft 154 kts 302°
2026-05-04 19:47 25.19994 55.45984 1384 ft 155 kts 302°
2026-05-04 19:47 25.20554 55.44974 1205 ft 154 kts 302°
2026-05-04 19:48 25.21113 55.43963 989 ft 154 kts 302°
2026-05-04 19:48 25.21677 55.42952 773 ft 156 kts 301°
2026-05-04 19:48 25.22249 55.41926 588 ft 157 kts 300°
2026-05-04 19:48 25.22813 55.40896 392 ft 157 kts 300°
2026-05-04 19:49 25.23389 55.39860 199 ft 158 kts 301°
2026-05-04 19:49 25.23953 55.38839 67 ft 148 kts 298°
2026-05-04 19:49 25.24425 55.37991 49 ft 107 kts 302°
2026-05-04 19:49 25.24701 55.37489 39 ft 44 kts 301°
2026-05-04 19:50 25.24780 55.37210 33 ft 19 kts 274°
2026-05-04 19:50 25.24788 55.37095 32 ft 15 kts 273°
2026-05-04 19:50 25.24799 55.36979 30 ft 16 kts 285°
2026-05-04 19:50 25.24838 55.36862 28 ft 16 kts 290°
2026-05-04 19:51 25.24872 55.36743 27 ft 16 kts 285°
2026-05-04 19:51 25.24917 55.36626 27 ft 16 kts 299°
2026-05-04 19:51 25.24969 55.36517 27 ft 16 kts 289°
2026-05-04 19:51 25.24916 55.36417 27 ft 16 kts 213°
2026-05-04 19:52 25.24862 55.36380 27 ft 5 kts 212°
2026-05-04 19:52 25.24851 55.36373 27 ft 0 kts 212°
2026-05-04 19:52 25.24849 55.36371 27 ft 1 kts 212°
2026-05-04 19:52 25.24843 55.36367 27 ft 1 kts 212°
2026-05-04 19:53 25.24839 55.36365 27 ft 0 kts 212°